| time (UTC) | temp F | wind direction | speed MPH | gust MPH | rain 1hr in | rain 24hr in | rain mn in | humidity % | barometer mb |
| 20260502220335 | 67 | 311 | 6.0 | 13.0 | 0.00 | 0.00 | 0.00 | 77 | 1010.9 |
| 20260502215836 | 67 | 330 | 6.0 | 13.0 | 0.00 | 0.00 | 0.00 | 76 | 1010.9 |
| 20260502215336 | 67 | 264 | 1.0 | 12.0 | 0.00 | 0.00 | 0.00 | 75 | 1010.9 |
| 20260502214836 | 67 | 281 | 8.0 | 12.0 | 0.00 | 0.00 | 0.00 | 75 | 1010.9 |
| 20260502214335 | 67 | 269 | 6.0 | 12.0 | 0.00 | 0.00 | 0.00 | 75 | 1011.0 |
| 20260502213836 | 67 | 320 | 3.0 | 12.0 | 0.00 | 0.00 | 0.00 | 76 | 1011.0 |
| 20260502213337 | 67 | 353 | 6.0 | 12.0 | 0.00 | 0.00 | 0.00 | 77 | 1011.2 |
| 20260502212836 | 67 | 284 | 5.0 | 14.0 | 0.00 | 0.00 | 0.00 | 77 | 1011.2 |
| 20260502212334 | 67 | 259 | 4.0 | 14.0 | 0.00 | 0.00 | 0.00 | 76 | 1011.4 |
| 20260502211836 | 67 | 252 | 8.0 | 12.0 | 0.00 | 0.00 | 0.00 | 75 | 1011.4 |
| 20260502211336 | 66 | 340 | 7.0 | 10.0 | 0.00 | 0.00 | 0.00 | 77 | 1011.4 |
| 20260502211058 | 66 | 286 | 4.0 | 14.0 | 0.00 | 0.00 | 0.00 | 77 | 1011.4 |
| 20260502210336 | 66 | 276 | 5.0 | 14.0 | 0.00 | 0.00 | 0.00 | 79 | 1011.3 |
| 20260502205834 | 66 | 267 | 8.0 | 14.0 | 0.00 | 0.00 | 0.00 | 76 | 1011.5 |
| 20260502205554 | 66 | 289 | 6.0 | 14.0 | 0.00 | 0.00 | 0.00 | 77 | 1011.3 |
| 20260502204835 | 66 | 310 | 5.0 | 15.0 | 0.00 | 0.00 | 0.00 | 78 | 1011.1 |
| 20260502204335 | 66 | 243 | 5.0 | 15.0 | 0.00 | 0.00 | 0.00 | 77 | 1011.3 |
| 20260502203835 | 67 | 244 | 4.0 | 13.0 | 0.00 | 0.00 | 0.00 | 78 | 1011.3 |
| 20260502203336 | 67 | 299 | 4.0 | 14.0 | 0.00 | 0.00 | 0.00 | 79 | 1011.3 |
| 20260502202836 | 67 | 247 | 8.0 | 17.0 | 0.00 | 0.00 | 0.00 | 79 | 1011.3 |
| 20260502202334 | 67 | 332 | 4.0 | 17.0 | 0.00 | 0.00 | 0.00 | 79 | 1011.4 |
| 20260502202056 | 67 | 265 | 6.0 | 14.0 | 0.00 | 0.00 | 0.00 | 77 | 1011.4 |
| 20260502201335 | 66 | 282 | 7.0 | 14.0 | 0.00 | 0.00 | 0.00 | 75 | 1011.2 |
| 20260502200835 | 66 | 255 | 8.0 | 10.0 | 0.00 | 0.00 | 0.00 | 76 | 1011.2 |
| 20260502200333 | 66 | 261 | 6.0 | 14.0 | 0.00 | 0.00 | 0.00 | 77 | 1011.1 |
| 20260502195833 | 66 | 238 | 4.0 | 14.0 | 0.00 | 0.00 | 0.00 | 79 | 1011.2 |
| 20260502195334 | 66 | 278 | 7.0 | 9.0 | 0.00 | 0.00 | 0.00 | 78 | 1011.5 |
| 20260502194835 | 66 | 359 | 5.0 | 13.0 | 0.00 | 0.00 | 0.00 | 79 | 1011.5 |
| 20260502194333 | 66 | 347 | 7.0 | 13.0 | 0.00 | 0.00 | 0.00 | 81 | 1011.8 |
| 20260502193833 | 66 | 299 | 6.0 | 13.0 | 0.00 | 0.00 | 0.00 | 78 | 1011.7 |
| 20260502193334 | 66 | 356 | 8.0 | 14.0 | 0.00 | 0.00 | 0.00 | 80 | 1011.7 |
| 20260502192834 | 66 | 352 | 8.0 | 14.0 | 0.00 | 0.00 | 0.00 | 80 | 1011.8 |
| 20260502192332 | 66 | 283 | 6.0 | 12.0 | 0.00 | 0.00 | 0.00 | 78 | 1011.8 |
| 20260502191832 | 66 | 295 | 6.0 | 12.0 | 0.00 | 0.00 | 0.00 | 79 | 1011.8 |
| 20260502191333 | 66 | 305 | 6.0 | 12.0 | 0.00 | 0.00 | 0.00 | 80 | 1011.9 |
| 20260502190834 | 66 | 267 | 4.0 | 13.0 | 0.00 | 0.00 | 0.00 | 80 | 1012.0 |
| 20260502190331 | 65 | 350 | 7.0 | 13.0 | 0.00 | 0.00 | 0.00 | 80 | 1012.0 |
| 20260502185831 | 65 | 330 | 7.0 | 12.0 | 0.00 | 0.00 | 0.00 | 80 | 1012.1 |
| 20260502185333 | 65 | 349 | 8.0 | 12.0 | 0.00 | 0.00 | 0.00 | 82 | 1012.2 |
| 20260502184833 | 65 | 329 | 6.0 | 10.0 | 0.00 | 0.00 | 0.00 | 81 | 1012.4 |
| 20260502184331 | 65 | 322 | 5.0 | 9.0 | 0.00 | 0.00 | 0.00 | 81 | 1012.5 |
| 20260502183831 | 65 | 280 | 1.0 | 8.0 | 0.00 | 0.00 | 0.00 | 80 | 1012.4 |
| 20260502183332 | 65 | 285 | 2.0 | 9.0 | 0.00 | 0.00 | 0.00 | 82 | 1012.4 |
| 20260502183058 | 65 | 253 | 4.0 | 9.0 | 0.00 | 0.00 | 0.00 | 81 | 1012.5 |
| 20260502182331 | 65 | 299 | 1.0 | 8.0 | 0.00 | 0.00 | 0.00 | 82 | 1012.6 |
| 20260502181831 | 65 | 311 | 4.0 | 8.0 | 0.00 | 0.00 | 0.00 | 81 | 1012.7 |
| 20260502181331 | 65 | 301 | 4.0 | 7.0 | 0.00 | 0.00 | 0.00 | 80 | 1012.8 |
| 20260502180831 | 64 | 282 | 2.0 | 9.0 | 0.00 | 0.00 | 0.00 | 80 | 1012.8 |
| 20260502180331 | 64 | 2 | 5.0 | 9.0 | 0.00 | 0.00 | 0.00 | 80 | 1012.9 |
| 20260502170331 | 62 | 274 | 2.0 | 8.0 | 0.00 | 0.00 | 0.00 | 87 | 1013.2 |
| 20260502164330 | 62 | 274 | 0.0 | 7.0 | 0.00 | 0.00 | 0.00 | 84 | 1013.4 |
| 20260502163831 | 62 | 21 | 5.0 | 8.0 | 0.00 | 0.00 | 0.00 | 85 | 1013.5 |
| 20260502163328 | 62 | 348 | 5.0 | 10.0 | 0.00 | 0.00 | 0.00 | 85 | 1013.4 |
| 20260502162829 | 62 | 349 | 7.0 | 10.0 | 0.00 | 0.00 | 0.00 | 85 | 1013.4 |
| 20260502162330 | 62 | 25 | 6.0 | 10.0 | 0.00 | 0.00 | 0.00 | 86 | 1013.2 |
| 20260502161830 | 62 | 2 | 9.0 | 10.0 | 0.00 | 0.00 | 0.00 | 86 | 1013.2 |
| 20260502161329 | 62 | 34 | 5.0 | 8.0 | 0.00 | 0.00 | 0.00 | 86 | 1013.3 |
| 20260502160830 | 61 | 25 | 1.0 | 9.0 | 0.00 | 0.00 | 0.00 | 86 | 1013.3 |
| 20260502160330 | 61 | 12 | 5.0 | 9.0 | 0.00 | 0.00 | 0.00 | 86 | 1013.3 |
| 20260502152328 | 61 | 331 | 3.0 | 7.0 | 0.00 | 0.00 | 0.00 | 87 | 1013.2 |
| 20260502151828 | 61 | 49 | 2.0 | 7.0 | 0.00 | 0.00 | 0.00 | 87 | 1013.2 |
| 20260502151327 | 61 | 347 | 3.0 | 7.0 | 0.00 | 0.00 | 0.00 | 87 | 1013.1 |
| 20260502150827 | 61 | 354 | 1.0 | 7.0 | 0.00 | 0.00 | 0.00 | 88 | 1013.1 |
| 20260502150328 | 61 | 343 | 5.0 | 8.0 | 0.00 | 0.00 | 0.00 | 88 | 1013.0 |
| 20260502130554 | 60 | 312 | 3.0 | 5.0 | 0.00 | 0.00 | 0.00 | 89 | 1012.3 |
| 20260502122823 | 60 | 267 | 2.0 | 3.0 | 0.00 | 0.00 | 0.00 | 88 | 1012.2 |
| 20260502122324 | 60 | 263 | 0.0 | 3.0 | 0.00 | 0.00 | 0.00 | 88 | 1012.2 |
| 20260502121824 | 60 | 266 | 0.0 | 1.0 | 0.00 | 0.00 | 0.00 | 88 | 1012.3 |
| 20260502121324 | 60 | 260 | 0.0 | 1.0 | 0.00 | 0.00 | 0.00 | 88 | 1012.1 |
| 20260502120824 | 60 | 252 | 0.0 | 3.0 | 0.00 | 0.00 | 0.00 | 88 | 1012.2 |
| 20260502120323 | 60 | 283 | 2.0 | 3.0 | 0.00 | 0.00 | 0.00 | 88 | 1012.1 |
| 20260502115824 | 60 | 263 | 0.0 | 3.0 | 0.00 | 0.00 | 0.00 | 88 | 1012.0 |
| 20260502115324 | 61 | 266 | 0.0 | 2.0 | 0.00 | 0.00 | 0.00 | 88 | 1012.0 |
| 20260502114824 | 61 | 249 | 1.0 | 2.0 | 0.00 | 0.00 | 0.00 | 88 | 1012.0 |
| 20260502114323 | 61 | 260 | 1.0 | 2.0 | 0.00 | 0.00 | 0.00 | 88 | 1011.9 |
| 20260502113824 | 61 | 270 | 0.0 | 3.0 | 0.00 | 0.00 | 0.00 | 88 | 1011.9 |
| 20260502113546 | 61 | 284 | 2.0 | 5.0 | 0.00 | 0.00 | 0.00 | 88 | 1011.9 |
| 20260502112822 | 61 | 271 | 2.0 | 5.0 | 0.00 | 0.00 | 0.00 | 88 | 1011.9 |
| 20260502112322 | 61 | 284 | 2.0 | 5.0 | 0.00 | 0.00 | 0.00 | 87 | 1011.8 |
| 20260502111824 | 61 | 299 | 4.0 | 5.0 | 0.00 | 0.00 | 0.00 | 87 | 1011.9 |
| 20260502111323 | 61 | 229 | 1.0 | 3.0 | 0.00 | 0.00 | 0.00 | 87 | 1011.9 |
| 20260502111043 | 61 | 225 | 2.0 | 2.0 | 0.00 | 0.00 | 0.00 | 87 | 1011.9 |
| 20260502110322 | 61 | 278 | 0.0 | 1.0 | 0.00 | 0.00 | 0.00 | 86 | 1011.9 |
| 20260502105823 | 61 | 247 | 0.0 | 2.0 | 0.00 | 0.00 | 0.00 | 86 | 1011.9 |
| 20260502105322 | 61 | 261 | 0.0 | 2.0 | 0.00 | 0.00 | 0.00 | 86 | 1011.8 |
| 20260502104821 | 61 | 250 | 0.0 | 3.0 | 0.00 | 0.00 | 0.00 | 86 | 1011.8 |
| 20260502104322 | 61 | 224 | 2.0 | 5.0 | 0.00 | 0.00 | 0.00 | 86 | 1011.9 |
| 20260502103822 | 61 | 236 | 3.0 | 5.0 | 0.00 | 0.00 | 0.00 | 85 | 1011.9 |
| 20260502103323 | 61 | 208 | 3.0 | 6.0 | 0.00 | 0.00 | 0.00 | 85 | 1011.8 |
| 20260502102821 | 61 | 229 | 2.0 | 6.0 | 0.00 | 0.00 | 0.00 | 86 | 1011.7 |
| 20260502102321 | 61 | 254 | 1.0 | 2.0 | 0.00 | 0.00 | 0.00 | 85 | 1011.8 |
| 20260502102042 | 61 | 254 | 0.0 | 5.0 | 0.00 | 0.00 | 0.00 | 85 | 1011.7 |
| 20260502101547 | 61 | 240 | 1.0 | 5.0 | 0.00 | 0.00 | 0.00 | 85 | 1011.9 |
| 20260502100820 | 61 | 251 | 4.0 | 5.0 | 0.00 | 0.00 | 0.00 | 85 | 1011.8 |
| 20260502091302 | 61 | 244 | 0.0 | 1.0 | 0.00 | 0.00 | 0.00 | 84 | 1011.8 |
| 20260502090541 | 61 | 251 | 0.0 | 2.0 | 0.00 | 0.00 | 0.00 | 84 | 1011.9 |
| 20260502071039 | 61 | 265 | 1.0 | 6.0 | 0.00 | 0.00 | 0.00 | 84 | 1012.6 |
| 20260502070539 | 61 | 318 | 3.0 | 6.0 | 0.00 | 0.00 | 0.00 | 84 | 1012.6 |
| 20260502070038 | 61 | 318 | 2.0 | 5.0 | 0.00 | 0.00 | 0.00 | 84 | 1012.5 |
| 20260502065758 | 61 | 272 | 2.0 | 5.0 | 0.00 | 0.00 | 0.00 | 84 | 1012.5 |
| 20260502065038 | 61 | 268 | 1.0 | 5.0 | 0.00 | 0.00 | 0.00 | 84 | 1012.5 |
| 20260502064538 | 61 | 295 | 1.0 | 6.0 | 0.00 | 0.00 | 0.00 | 84 | 1012.4 |
| 20260502064038 | 61 | 316 | 2.0 | 6.0 | 0.00 | 0.00 | 0.00 | 84 | 1012.4 |
| 20260502063537 | 61 | 326 | 4.0 | 5.0 | 0.00 | 0.00 | 0.00 | 84 | 1012.5 |
| 20260502063038 | 61 | 305 | 2.0 | 5.0 | 0.00 | 0.00 | 0.00 | 84 | 1012.5 |
| 20260502062538 | 61 | 2 | 1.0 | 6.0 | 0.00 | 0.00 | 0.00 | 84 | 1012.4 |
| 20260502062037 | 61 | 18 | 1.0 | 7.0 | 0.00 | 0.00 | 0.00 | 84 | 1012.4 |
| 20260502061537 | 61 | 344 | 5.0 | 7.0 | 0.00 | 0.00 | 0.00 | 84 | 1012.4 |
| 20260502061039 | 61 | 334 | 5.0 | 7.0 | 0.00 | 0.00 | 0.00 | 84 | 1012.4 |
| 20260502060537 | 61 | 341 | 5.0 | 7.0 | 0.00 | 0.00 | 0.00 | 84 | 1012.4 |
| 20260502060304 | 61 | 348 | 1.0 | 5.0 | 0.00 | 0.00 | 0.00 | 84 | 1012.5 |
| 20260502055536 | 61 | 3 | 3.0 | 5.0 | 0.00 | 0.00 | 0.00 | 84 | 1012.5 |
| 20260502055037 | 61 | 288 | 0.0 | 5.0 | 0.00 | 0.00 | 0.00 | 84 | 1012.6 |
| 20260502054538 | 61 | 264 | 0.0 | 5.0 | 0.00 | 0.00 | 0.00 | 84 | 1012.5 |
| 20260502054036 | 61 | 319 | 2.0 | 5.0 | 0.00 | 0.00 | 0.00 | 84 | 1012.6 |
| 20260502053537 | 61 | 320 | 3.0 | 6.0 | 0.00 | 0.00 | 0.00 | 84 | 1012.6 |
| 20260502053035 | 61 | 313 | 2.0 | 6.0 | 0.00 | 0.00 | 0.00 | 84 | 1012.6 |
| 20260502052537 | 61 | 326 | 4.0 | 6.0 | 0.00 | 0.00 | 0.00 | 84 | 1012.5 |
| 20260502052037 | 61 | 350 | 4.0 | 6.0 | 0.00 | 0.00 | 0.00 | 84 | 1012.5 |
| 20260502051537 | 61 | 347 | 4.0 | 6.0 | 0.00 | 0.00 | 0.00 | 84 | 1012.4 |
| 20260502051035 | 61 | 325 | 4.0 | 5.0 | 0.00 | 0.00 | 0.00 | 84 | 1012.4 |
| 20260502050536 | 61 | 275 | 1.0 | 2.0 | 0.00 | 0.00 | 0.00 | 84 | 1012.5 |
| 20260502050036 | 61 | 320 | 0.0 | 3.0 | 0.00 | 0.00 | 0.00 | 84 | 1012.6 |
| 20260502045758 | 61 | 272 | 2.0 | 5.0 | 0.00 | 0.00 | 0.00 | 84 | 1012.6 |
| 20260502045035 | 61 | 276 | 3.0 | 5.0 | 0.00 | 0.00 | 0.00 | 84 | 1012.6 |
| 20260502044536 | 61 | 272 | 3.0 | 5.0 | 0.00 | 0.00 | 0.00 | 84 | 1012.5 |
| 20260502044036 | 61 | 317 | 2.0 | 6.0 | 0.00 | 0.00 | 0.00 | 84 | 1012.5 |
| 20260502043534 | 61 | 280 | 0.0 | 7.0 | 0.00 | 0.00 | 0.00 | 84 | 1012.5 |
| 20260502043035 | 61 | 352 | 5.0 | 7.0 | 0.00 | 0.00 | 0.00 | 84 | 1012.3 |
| 20260502042536 | 61 | 347 | 5.0 | 7.0 | 0.00 | 0.00 | 0.00 | 83 | 1012.4 |
| 20260502042036 | 61 | 345 | 5.0 | 7.0 | 0.00 | 0.00 | 0.00 | 84 | 1012.2 |
| 20260502041535 | 61 | 342 | 5.0 | 6.0 | 0.00 | 0.00 | 0.00 | 83 | 1012.2 |
| 20260502041035 | 61 | 288 | 3.0 | 6.0 | 0.00 | 0.00 | 0.00 | 83 | 1012.3 |
| 20260502040755 | 61 | 298 | 4.0 | 5.0 | 0.00 | 0.00 | 0.00 | 83 | 1012.3 |
| 20260502040035 | 61 | 269 | 0.0 | 2.0 | 0.00 | 0.00 | 0.00 | 84 | 1012.2 |
| 20260502035535 | 61 | 249 | 0.0 | 2.0 | 0.00 | 0.00 | 0.00 | 85 | 1012.3 |
| 20260502035033 | 61 | 252 | 1.0 | 2.0 | 0.00 | 0.00 | 0.00 | 85 | 1012.2 |
| 20260502034535 | 61 | 269 | 1.0 | 3.0 | 0.00 | 0.00 | 0.00 | 85 | 1012.1 |
| 20260502034036 | 61 | 255 | 1.0 | 3.0 | 0.00 | 0.00 | 0.00 | 85 | 1012.1 |
| 20260502033536 | 61 | 248 | 1.0 | 2.0 | 0.00 | 0.00 | 0.00 | 85 | 1012.1 |
| 20260502033034 | 61 | 254 | 0.0 | 2.0 | 0.00 | 0.00 | 0.00 | 85 | 1012.0 |
| 20260502032536 | 61 | 261 | 1.0 | 5.0 | 0.00 | 0.00 | 0.00 | 85 | 1011.9 |
| 20260502032255 | 61 | 257 | 0.0 | 5.0 | 0.00 | 0.00 | 0.00 | 85 | 1011.9 |
| 20260502031533 | 61 | 264 | 1.0 | 3.0 | 0.00 | 0.00 | 0.00 | 86 | 1011.9 |
| 20260502031033 | 61 | 263 | 1.0 | 3.0 | 0.00 | 0.00 | 0.00 | 86 | 1011.8 |
| 20260502030758 | 61 | 259 | 0.0 | 2.0 | 0.00 | 0.00 | 0.00 | 86 | 1011.7 |
| 20260502030033 | 61 | 260 | 1.0 | 6.0 | 0.00 | 0.00 | 0.00 | 85 | 1011.7 |
| 20260502025532 | 61 | 260 | 1.0 | 6.0 | 0.00 | 0.00 | 0.00 | 85 | 1011.7 |
| 20260502025033 | 61 | 264 | 1.0 | 3.0 | 0.00 | 0.00 | 0.00 | 85 | 1011.6 |
| 20260502024533 | 61 | 292 | 3.0 | 5.0 | 0.00 | 0.00 | 0.00 | 85 | 1011.6 |
| 20260502024034 | 61 | 257 | 3.0 | 5.0 | 0.00 | 0.00 | 0.00 | 85 | 1011.5 |
| 20260502023753 | 61 | 337 | 2.0 | 6.0 | 0.00 | 0.00 | 0.00 | 85 | 1011.5 |
| 20260502023031 | 62 | 294 | 1.0 | 6.0 | 0.00 | 0.00 | 0.00 | 85 | 1011.5 |
| 20260502022531 | 62 | 264 | 3.0 | 5.0 | 0.00 | 0.00 | 0.00 | 84 | 1011.5 |
| 20260502022033 | 62 | 256 | 2.0 | 6.0 | 0.00 | 0.00 | 0.00 | 84 | 1011.5 |
| 20260502021532 | 62 | 256 | 4.0 | 8.0 | 0.00 | 0.00 | 0.00 | 83 | 1011.4 |
| 20260502021033 | 62 | 260 | 3.0 | 8.0 | 0.00 | 0.00 | 0.00 | 82 | 1011.3 |
| 20260502020531 | 63 | 330 | 5.0 | 8.0 | 0.00 | 0.00 | 0.00 | 81 | 1011.3 |
| 20260502020034 | 63 | 335 | 4.0 | 8.0 | 0.00 | 0.00 | 0.00 | 81 | 1011.3 |
| 20260502015756 | 63 | 266 | 1.0 | 10.0 | 0.00 | 0.00 | 0.00 | 80 | 1011.3 |
| 20260502015030 | 63 | 296 | 4.0 | 10.0 | 0.00 | 0.00 | 0.00 | 81 | 1011.2 |
| 20260502014530 | 63 | 299 | 8.0 | 10.0 | 0.00 | 0.00 | 0.00 | 80 | 1011.3 |
| 20260502014032 | 64 | 267 | 3.0 | 8.0 | 0.00 | 0.00 | 0.00 | 80 | 1011.3 |
| 20260502013533 | 64 | 257 | 2.0 | 8.0 | 0.00 | 0.00 | 0.00 | 80 | 1011.2 |
| 20260502013030 | 64 | 272 | 2.0 | 9.0 | 0.00 | 0.00 | 0.00 | 79 | 1011.1 |
| 20260502012532 | 64 | 303 | 5.0 | 9.0 | 0.00 | 0.00 | 0.00 | 78 | 1011.0 |
| 20260502012032 | 64 | 291 | 3.0 | 8.0 | 0.00 | 0.00 | 0.00 | 78 | 1011.0 |
| 20260502011756 | 64 | 310 | 2.0 | 7.0 | 0.00 | 0.00 | 0.00 | 76 | 1011.1 |
| 20260502011255 | 64 | 339 | 5.0 | 7.0 | 0.00 | 0.00 | 0.00 | 77 | 1011.0 |
| 20260502010530 | 65 | 358 | 4.0 | 8.0 | 0.00 | 0.00 | 0.00 | 76 | 1010.9 |
| 20260502010031 | 65 | 262 | 3.0 | 8.0 | 0.00 | 0.00 | 0.00 | 77 | 1010.9 |
| 20260502005756 | 65 | 265 | 4.0 | 12.0 | 0.00 | 0.00 | 0.00 | 76 | 1010.8 |
| 20260502005030 | 65 | 280 | 7.0 | 12.0 | 0.00 | 0.00 | 0.00 | 78 | 1010.9 |
| 20260502004530 | 65 | 302 | 1.0 | 10.0 | 0.00 | 0.00 | 0.00 | 77 | 1010.9 |
| 20260502004031 | 66 | 298 | 2.0 | 12.0 | 0.00 | 0.00 | 0.00 | 76 | 1010.9 |
| 20260502003530 | 66 | 305 | 5.0 | 12.0 | 0.00 | 0.00 | 0.00 | 74 | 1010.9 |
| 20260502003249 | 66 | 291 | 3.0 | 8.0 | 0.00 | 0.00 | 0.00 | 75 | 1010.9 |
| 20260502002529 | 66 | 268 | 2.0 | 8.0 | 0.00 | 0.00 | 0.00 | 75 | 1010.8 |
| 20260502002029 | 66 | 331 | 3.0 | 12.0 | 0.00 | 0.00 | 0.00 | 74 | 1010.7 |
| 20260502001530 | 66 | 264 | 4.0 | 12.0 | 0.00 | 0.00 | 0.00 | 74 | 1010.7 |
| 20260502001028 | 67 | 296 | 4.0 | 8.0 | 0.00 | 0.00 | 0.00 | 75 | 1010.7 |
| 20260502000529 | 67 | 298 | 4.0 | 9.0 | 0.00 | 0.00 | 0.00 | 73 | 1010.7 |
| 20260502000028 | 67 | 281 | 2.0 | 9.0 | 0.00 | 0.00 | 0.00 | 74 | 1010.7 |
| 20260501235530 | 67 | 13 | 5.0 | 7.0 | 0.00 | 0.00 | 0.00 | 73 | 1010.7 |
| 20260501235029 | 67 | 262 | 4.0 | 8.0 | 0.00 | 0.00 | 0.00 | 72 | 1010.6 |
| 20260501234528 | 67 | 325 | 4.0 | 9.0 | 0.00 | 0.00 | 0.00 | 71 | 1010.7 |
| 20260501234027 | 67 | 258 | 6.0 | 9.0 | 0.00 | 0.00 | 0.00 | 71 | 1010.6 |
| 20260501233530 | 67 | 274 | 1.0 | 8.0 | 0.00 | 0.00 | 0.00 | 72 | 1010.6 |
| 20260501233029 | 67 | 280 | 4.0 | 8.0 | 0.00 | 0.00 | 0.00 | 72 | 1010.6 |
| 20260501232027 | 67 | 266 | 2.0 | 8.0 | 0.00 | 0.00 | 0.00 | 72 | 1010.6 |
| 20260501231756 | 67 | 306 | 5.0 | 10.0 | 0.00 | 0.00 | 0.00 | 73 | 1010.7 |
| 20260501231029 | 67 | 278 | 1.0 | 10.0 | 0.00 | 0.00 | 0.00 | 73 | 1010.6 |
| 20260501230528 | 67 | 332 | 5.0 | 13.0 | 0.00 | 0.00 | 0.00 | 72 | 1010.8 |
| 20260501230027 | 67 | 331 | 2.0 | 13.0 | 0.00 | 0.00 | 0.00 | 74 | 1010.8 |
| 20260501225528 | 67 | 287 | 6.0 | 10.0 | 0.00 | 0.00 | 0.00 | 73 | 1010.8 |
| 20260501225254 | 67 | 327 | 6.0 | 9.0 | 0.00 | 0.00 | 0.00 | 72 | 1010.9 |
| 20260501224527 | 67 | 329 | 5.0 | 12.0 | 0.00 | 0.00 | 0.00 | 72 | 1011.0 |
| 20260501224026 | 67 | 249 | 2.0 | 12.0 | 0.00 | 0.00 | 0.00 | 75 | 1011.0 |
| 20260501223528 | 67 | 329 | 9.0 | 13.0 | 0.00 | 0.00 | 0.00 | 73 | 1011.0 |
| 20260501223027 | 67 | 324 | 9.0 | 13.0 | 0.00 | 0.00 | 0.00 | 73 | 1011.1 |
| 20260501222526 | 67 | 346 | 7.0 | 10.0 | 0.00 | 0.00 | 0.00 | 72 | 1011.3 |
| 20260501222026 | 68 | 293 | 4.0 | 9.0 | 0.00 | 0.00 | 0.00 | 71 | 1011.4 |
| 20260501221528 | 68 | 281 | 4.0 | 9.0 | 0.00 | 0.00 | 0.00 | 70 | 1011.4 |
| 20260501221029 | 68 | 294 | 4.0 | 10.0 | 0.00 | 0.00 | 0.00 | 71 | 1011.4 |
| 20260501220526 | 68 | 345 | 3.0 | 10.0 | 0.00 | 0.00 | 0.00 | 71 | 1011.3 |